EW7774 Weather Reports


Display with metric or nautical units.
time (UTC)temp
F
wind
direction
speed
MPH
gust
MPH
rain 1hr
in
rain 24hr
in
rain mn
in
humidity
%
barometer
mb
20260503021815 51 0.0 0.0 0.00 0.02 0.01 54 1013.8
20260503021537 51 0.0 0.0 0.00 0.02 0.01 54 1014.0
20260503021332 51 0.0 0.0 0.00 0.02 0.01 54 1013.7
20260503021026 51 0.0 0.0 0.00 0.02 0.01 53 1014.0
20260503020827 51 0.0 0.0 0.00 0.02 0.01 54 1013.7
20260503020523 51 0.0 0.0 0.00 0.02 0.01 53 1014.0
20260503020321 51 0.0 0.0 0.00 0.02 0.01 53 1013.7
20260503020037 51 0.0 0.0 0.00 0.02 0.01 52 1014.0
20260503015819 51 0.0 0.0 0.00 0.02 0.01 52 1013.7
20260503015525 50 0.0 0.0 0.00 0.02 0.01 54 1014.0
20260503015316 51 0.0 0.0 0.00 0.02 0.01 53 1013.5
20260503015025 50 0.0 0.0 0.00 0.02 0.01 54 1013.9
20260503014853 51 0.0 0.0 0.00 0.02 0.01 53 1013.6
20260503014544 50 0.0 0.0 0.00 0.02 0.01 56 1014.0
20260503014325 50 0.0 0.0 0.00 0.02 0.01 57 1013.5
20260503014025 50 0.0 0.0 0.00 0.02 0.01 57 1013.9
20260503013819 50 0.0 0.0 0.00 0.02 0.01 58 1013.6
20260503013525 50 0.0 0.0 0.00 0.02 0.01 57 1013.9
20260503013351 50 0.0 0.0 0.00 0.02 0.01 57 1013.5
20260503013050 50 0.0 0.0 0.00 0.02 0.01 57 1013.8
20260503012844 50 0.0 0.0 0.00 0.02 0.01 58 1013.5
20260503012526 50 0.0 0.0 0.00 0.02 0.01 57 1013.9
20260503012316 50 0.0 0.0 0.00 0.02 0.01 57 1013.5
20260503012025 49 0.0 0.0 0.00 0.02 0.01 58 1013.8
20260503011832 50 0.0 0.0 0.00 0.02 0.01 59 1013.4
20260503011547 49 0.0 0.0 0.00 0.02 0.01 57 1013.7
20260503011325 50 0.0 0.0 0.00 0.02 0.01 58 1013.4
20260503011028 50 0.0 0.0 0.00 0.02 0.01 58 1013.6
20260503010818 50 0.0 0.0 0.00 0.02 0.01 59 1013.3
20260503010528 50 0.0 0.0 0.00 0.02 0.01 58 1013.5
20260503010313 50 0.0 0.0 0.00 0.02 0.01 58 1013.3
20260503010056 50 0.0 0.0 0.00 0.02 0.01 58 1013.5
20260503005829 50 0.0 0.0 0.00 0.02 0.01 58 1013.2
20260503005526 50 0.0 0.0 0.00 0.02 0.01 57 1013.5
20260503005327 51 0.0 0.0 0.00 0.02 0.01 58 1013.1
20260503005028 50 0.0 0.0 0.00 0.02 0.01 56 1013.3
20260503004843 51 0.0 0.0 0.00 0.02 0.01 57 1013.0
20260503004537 50 0.0 0.0 0.00 0.02 0.01 56 1013.2
20260503004317 51 0.0 0.0 0.00 0.02 0.01 57 1012.8
20260503004025 51 0.0 0.0 0.00 0.02 0.01 55 1013.1
20260503003830 51 0.0 0.0 0.00 0.02 0.01 55 1012.8
20260503003525 51 0.0 0.0 0.00 0.02 0.01 55 1013.1
20260503003322 52 0.0 0.0 0.00 0.02 0.01 55 1012.8
20260503003038 51 0.0 0.0 0.00 0.02 0.01 54 1013.0
20260503002834 52 0.0 0.0 0.00 0.02 0.01 53 1012.7
20260503002525 52 0.0 0.0 0.00 0.02 0.01 54 1012.9
20260503002329 52 0.0 0.0 0.00 0.02 0.01 54 1012.6
20260503002025 52 0.0 0.0 0.00 0.02 0.01 54 1012.9
20260503001823 53 0.0 0.0 0.00 0.02 0.01 55 1012.6
20260503001538 52 0.0 0.0 0.00 0.02 0.01 52 1012.8
20260503001325 53 0.0 0.0 0.00 0.02 0.01 53 1012.6
20260503001025 53 0.0 0.0 0.00 0.02 0.01 52 1012.7
20260503000822 53 0.0 0.0 0.00 0.02 0.01 53 1012.4
20260503000525 53 0.0 0.0 0.00 0.02 0.01 51 1012.7
20260503000318 54 0.0 0.0 0.00 0.02 0.01 53 1012.5
20260503000043 53 0.0 0.0 0.00 0.02 0.01 50 1012.7
20260502235526 53 0.0 0.0 0.00 0.02 0.01 51 1012.6
20260502235329 54 71 0.0 0.0 0.00 0.02 0.01 53 1012.4
20260502235029 54 0 0.0 3.0 0.00 0.02 0.01 52 1012.4
20260502234825 54 71 0.0 0.0 0.00 0.02 0.01 53 1012.3
20260502234541 54 0 0.0 3.0 0.00 0.02 0.01 52 1012.4
20260502234317 54 71 0.0 3.0 0.00 0.02 0.01 52 1012.2
20260502234026 54 0 0.0 7.0 0.00 0.02 0.01 52 1012.4
20260502233829 54 46 0.0 7.0 0.00 0.02 0.01 53 1012.2
20260502233526 54 0 0.0 7.0 0.00 0.02 0.01 51 1012.3
20260502233323 54 46 1.0 7.0 0.00 0.02 0.01 53 1012.2
20260502233039 54 0 0.0 5.0 0.00 0.02 0.01 52 1012.2
20260502232835 55 256 0.0 5.0 0.00 0.02 0.01 49 1012.1
20260502232525 54 0 0.0 5.0 0.00 0.02 0.01 52 1012.3
20260502232328 55 360 1.0 4.0 0.00 0.02 0.01 51 1012.1
20260502232026 54 0 0.0 8.0 0.00 0.02 0.01 51 1012.2
20260502231820 55 5 0.0 8.0 0.00 0.02 0.01 50 1012.1
20260502231537 54 0 0.0 8.0 0.00 0.02 0.01 50 1012.2
20260502231317 55 360 0.0 8.0 0.00 0.02 0.01 51 1012.1
20260502231026 54 0 0.0 8.0 0.00 0.02 0.01 47 1012.2
20260502230854 55 350 0.0 5.0 0.00 0.02 0.01 48 1012.1
20260502230526 54 0 0.0 5.0 0.00 0.02 0.01 50 1012.3
20260502230327 55 69 0.0 5.0 0.00 0.02 0.01 52 1012.1
20260502230038 54 249 0.0 3.0 0.00 0.02 0.01 47 1012.2
20260502225819 55 19 0.0 3.0 0.00 0.02 0.01 47 1012.1
20260502225525 54 43 0.0 3.0 0.00 0.02 0.01 49 1012.2
20260502225332 55 100 0.0 3.0 0.00 0.02 0.01 50 1012.0
20260502225025 55 0 0.0 3.0 0.00 0.02 0.01 49 1012.2
20260502224826 55 40 0.0 3.0 0.00 0.02 0.01 50 1012.0
20260502224539 55 0 0.0 6.0 0.00 0.02 0.01 48 1012.1
20260502224321 55 306 0.0 6.0 0.00 0.02 0.01 51 1012.0
20260502224022 55 0 0.0 6.0 0.00 0.02 0.01 51 1012.1
20260502223817 55 22 1.0 6.0 0.00 0.02 0.01 48 1012.0
20260502223522 55 0 0.0 6.0 0.00 0.02 0.01 49 1012.1
20260502223351 55 65 0.0 5.0 0.00 0.02 0.01 51 1011.9
20260502223038 55 0 0.0 4.0 0.00 0.02 0.01 48 1012.1
20260502222843 56 19 0.0 5.0 0.00 0.02 0.01 48 1011.9
20260502222529 55 39 0.0 4.0 0.00 0.02 0.01 48 1012.1
20260502222316 56 15 0.0 4.0 0.00 0.02 0.01 47 1012.0
20260502222027 55 34 0.0 4.0 0.00 0.02 0.01 48 1012.1
20260502221831 56 171 0.0 4.0 0.00 0.02 0.01 50 1012.0
20260502221545 56 0 0.0 4.0 0.00 0.02 0.01 48 1012.1
20260502221348 56 9 1.0 4.0 0.00 0.02 0.01 50 1012.0
20260502221027 56 0 0.0 4.0 0.00 0.02 0.01 47 1012.2
20260502220841 56 258 0.0 3.0 0.00 0.02 0.01 50 1012.0
20260502220526 56 0 0.0 7.0 0.00 0.02 0.01 49 1012.1
20260502220039 56 0 0.0 7.0 0.00 0.02 0.01 51 1012.1
20260502215829 56 11 2.0 7.0 0.00 0.02 0.01 50 1011.9
20260502215525 56 0 0.0 8.0 0.00 0.02 0.01 47 1012.1
20260502215325 56 243 0.0 8.0 0.00 0.02 0.01 46 1012.0
20260502215026 56 50 1.0 11.0 0.00 0.02 0.01 48 1012.1
20260502214820 56 43 3.0 10.0 0.00 0.02 0.01 49 1012.0
20260502214547 56 38 1.0 11.0 0.00 0.02 0.01 48 1012.1
20260502214321 56 42 2.0 10.0 0.00 0.02 0.01 49 1011.9
20260502214022 56 31 0.0 8.0 0.00 0.02 0.01 47 1012.1
20260502213834 56 25 1.0 8.0 0.00 0.02 0.01 47 1011.8
20260502213525 56 0 1.0 8.0 0.00 0.02 0.01 45 1012.0
20260502213327 56 3 1.0 8.0 0.00 0.02 0.01 48 1011.9
20260502213038 56 0 1.0 8.0 0.00 0.02 0.01 46 1012.1
20260502212839 57 5 1.0 8.0 0.00 0.02 0.01 48 1011.9
20260502212526 56 0 0.0 8.0 0.00 0.02 0.01 45 1012.1
20260502212332 57 356 0.0 8.0 0.00 0.02 0.01 45 1011.9
20260502212025 56 0 0.0 8.0 0.00 0.02 0.01 45 1012.2
20260502211828 57 154 0.0 4.0 0.00 0.02 0.01 45 1011.9
20260502211547 57 0 0.0 11.0 0.00 0.02 0.01 45 1012.1
20260502211321 57 29 1.0 11.0 0.00 0.02 0.01 46 1011.9
20260502211026 57 0 1.0 11.0 0.00 0.02 0.01 43 1012.0
20260502210834 58 358 3.0 11.0 0.00 0.02 0.01 43 1011.9
20260502210526 57 0 1.0 8.0 0.00 0.02 0.01 42 1012.0
20260502210327 58 15 1.0 6.0 0.00 0.02 0.01 44 1011.7
20260502210048 57 33 2.0 8.0 0.00 0.02 0.01 44 1011.9
20260502205823 58 265 1.0 8.0 0.00 0.02 0.01 46 1011.7
20260502205526 57 0 2.0 10.0 0.00 0.02 0.01 44 1011.8
20260502205320 58 4 2.0 10.0 0.00 0.02 0.01 46 1011.6
20260502205026 58 23 2.0 10.0 0.00 0.02 0.01 41 1011.8
20260502204837 58 3 4.0 10.0 0.00 0.02 0.01 43 1011.6
20260502204541 58 65 1.0 11.0 0.00 0.02 0.01 43 1011.8
20260502204349 58 188 1.0 11.0 0.00 0.02 0.01 43 1011.5
20260502204026 58 61 1.0 11.0 0.00 0.02 0.01 43 1011.7
20260502203842 58 23 2.0 11.0 0.00 0.02 0.01 42 1011.5
20260502203525 58 0 0.0 8.0 0.00 0.02 0.01 42 1011.6
20260502203334 58 276 1.0 7.0 0.00 0.02 0.01 41 1011.4
20260502203047 58 0 0.0 8.0 0.00 0.02 0.01 42 1011.6
20260502202829 58 47 1.0 7.0 0.00 0.02 0.01 43 1011.5
20260502202528 58 307 0.0 6.0 0.00 0.02 0.01 42 1011.7
20260502202325 58 275 1.0 5.0 0.00 0.02 0.01 42 1011.5
20260502202025 58 280 0.0 9.0 0.00 0.02 0.01 44 1011.7
20260502201821 58 23 0.0 9.0 0.00 0.02 0.01 45 1011.4
20260502201546 58 0 2.0 9.0 0.00 0.02 0.01 40 1011.7
20260502201313 58 23 4.0 9.0 0.00 0.02 0.01 44 1011.5
20260502201026 57 31 0.0 6.0 0.00 0.02 0.01 45 1011.6
20260502200830 58 21 0.0 7.0 0.00 0.02 0.01 43 1011.4
20260502200526 57 0 0.0 7.0 0.00 0.02 0.01 46 1011.7
20260502200325 58 180 0.0 6.0 0.00 0.02 0.01 43 1011.6
20260502200038 58 28 1.0 7.0 0.00 0.02 0.01 42 1011.9
20260502195817 58 358 1.0 7.0 0.00 0.02 0.01 43 1011.6
20260502195525 58 36 1.0 6.0 0.00 0.02 0.01 40 1011.9
20260502195332 58 7 1.0 6.0 0.00 0.02 0.01 44 1011.6
20260502195023 58 12 0.0 9.0 0.00 0.02 0.01 42 1011.9
20260502194828 58 16 2.0 8.0 0.00 0.02 0.01 41 1011.7
20260502194539 58 21 1.0 9.0 0.00 0.02 0.01 42 1011.9
20260502194342 58 350 4.0 8.0 0.00 0.02 0.01 45 1011.7
20260502194027 58 28 0.0 11.0 0.00 0.02 0.01 42 1011.9
20260502193833 58 175 1.0 11.0 0.00 0.02 0.01 41 1011.7
20260502193526 58 31 2.0 11.0 0.00 0.02 0.01 42 1012.0
20260502193326 58 12 2.0 11.0 0.00 0.02 0.01 45 1011.9
20260502193041 58 40 1.0 6.0 0.00 0.02 0.01 42 1012.1
20260502192824 58 230 0.0 7.0 0.00 0.02 0.01 44 1011.9
20260502192525 58 25 0.0 6.0 0.00 0.02 0.01 42 1012.2
20260502192317 58 231 1.0 7.0 0.00 0.02 0.01 44 1012.0
20260502192025 57 0 0.0 6.0 0.00 0.02 0.01 43 1012.3
20260502191830 58 2 0.0 7.0 0.00 0.02 0.01 43 1012.1
20260502191541 57 0 0.0 5.0 0.00 0.02 0.01 46 1012.4
20260502191324 58 79 0.0 5.0 0.00 0.02 0.01 46 1012.2
20260502191026 57 0 0.0 3.0 0.00 0.02 0.01 43 1012.5
20260502190821 57 126 0.0 3.0 0.00 0.02 0.01 45 1012.3
20260502190526 57 0 0.0 4.0 0.00 0.02 0.01 45 1012.7
20260502190313 58 102 0.0 5.0 0.00 0.02 0.01 45 1012.5
20260502190038 57 0 0.0 4.0 0.00 0.02 0.01 46 1012.8
20260502185824 58 250 1.0 5.0 0.00 0.02 0.01 45 1012.6
20260502185526 57 0 0.0 3.0 0.00 0.02 0.01 45 1013.0
20260502185322 58 84 0.0 3.0 0.00 0.02 0.01 46 1012.7
20260502185025 57 0 0.0 3.0 0.00 0.02 0.01 45 1013.0
20260502184834 58 343 0.0 3.0 0.00 0.02 0.01 50 1012.7
20260502184539 57 0 0.0 3.0 0.00 0.02 0.01 48 1013.1
20260502184319 58 58 1.0 3.0 0.00 0.02 0.01 52 1012.8
20260502184025 57 0 0.0 2.0 0.00 0.02 0.01 49 1013.1
20260502183833 57 82 0.0 2.0 0.00 0.02 0.01 50 1012.8
20260502183526 57 0 0.0 3.0 0.00 0.02 0.01 46 1013.3
20260502183327 58 82 0.0 3.0 0.00 0.02 0.01 50 1013.0
20260502183044 57 0 0.0 3.0 0.00 0.02 0.01 50 1013.4
20260502182836 58 61 0.0 3.0 0.00 0.02 0.01 48 1013.1
20260502182529 57 64 0.0 1.0 0.00 0.02 0.01 48 1013.5
20260502182324 58 73 0.0 1.0 0.00 0.02 0.01 47 1013.2
20260502182026 57 0 0.0 1.0 0.00 0.02 0.01 52 1013.5
20260502181816 58 144 0.0 0.0 0.00 0.02 0.01 51 1013.2
20260502181543 57 0 0.0 0.0 0.00 0.02 0.01 47 1013.5
20260502181348 57 162 0.0 0.0 0.00 0.02 0.01 46 1013.3
20260502181026 57 0 0.0 4.0 0.00 0.02 0.01 48 1013.6
20260502180821 57 52 0.0 3.0 0.00 0.02 0.01 48 1013.3
20260502180526 57 0 0.0 4.0 0.00 0.02 0.01 46 1013.7
20260502180315 57 36 0.0 4.0 0.00 0.02 0.01 49 1013.4
20260502170316 57 216 0.0 3.0 0.00 0.02 0.01 51 1013.7
20260502164330 56 360 0.0 4.0 0.00 0.02 0.01 52 1014.0
20260502164026 55 0 0.0 0.0 0.00 0.02 0.01 52 1014.2
20260502163823 55 316 0.0 0.0 0.00 0.02 0.01 52 1014.0
20260502163526 54 0 0.0 4.0 0.00 0.02 0.01 51 1014.4
20260502163317 55 8 0.0 4.0 0.00 0.02 0.01 51 1014.1
20260502163039 54 0 0.0 4.0 0.00 0.02 0.01 52 1014.5
20260502162834 55 220 0.0 4.0 0.00 0.02 0.01 54 1014.2
20260502162529 54 0 0.0 4.0 0.00 0.02 0.01 50 1014.5
20260502162325 55 259 0.0 3.0 0.00 0.02 0.01 51 1014.1
20260502162026 54 0 0.0 3.0 0.00 0.02 0.01 51 1014.4
20260502161819 55 259 0.0 3.0 0.00 0.02 0.01 50 1014.1
20260502161539 55 0 0.0 3.0 0.00 0.02 0.01 53 1014.5
20260502161312 55 42 0.0 3.0 0.00 0.02 0.01 53 1014.2
20260502161029 55 0 0.0 3.0 0.00 0.02 0.01 54 1014.5
20260502160828 55 90 0.0 3.0 0.00 0.02 0.01 55 1014.3
20260502160530 55 0 0.0 3.0 0.00 0.02 0.01 52 1014.5
20260502160321 55 217 0.0 3.0 0.00 0.02 0.01 52 1014.3
20260502152334 54 17 2.0 10.0 0.01 0.02 0.01 55 1014.4
20260502152022 54 0 0.0 3.0 0.01 0.02 0.01 55 1014.7
20260502151827 54 86 0.0 3.0 0.01 0.02 0.01 59 1014.4
20260502151546 53 0 0.0 4.0 0.01 0.02 0.01 56 1014.7
20260502151322 54 9 0.0 4.0 0.01 0.02 0.01 56 1014.4
20260502151026 53 0 0.0 5.0 0.01 0.02 0.01 57 1014.9
20260502150814 53 145 0.0 5.0 0.01 0.02 0.01 59 1014.6
20260502150526 53 0 1.0 5.0 0.01 0.02 0.01 58 1014.9
20260502150330 53 4 2.0 5.0 0.01 0.02 0.01 58 1014.6
20260502130523 48 0 0.0 6.0 0.00 0.01 0.00 69 1014.7
20260502130322 48 54 0.0 5.0 0.00 0.01 0.00 70 1014.4
20260502123523 47 0 0.0 3.0 0.00 0.01 0.00 72 1014.8
20260502123321 47 19 1.0 3.0 0.00 0.01 0.00 72 1014.6
20260502123041 47 0 0.0 2.0 0.00 0.01 0.00 71 1014.8
20260502122833 47 5 0.0 2.0 0.00 0.01 0.00 72 1014.5
20260502122522 47 0 0.0 3.0 0.00 0.01 0.00 73 1014.8
20260502122346 47 358 0.0 2.0 0.00 0.01 0.00 73 1014.5
20260502122022 47 0 0.0 3.0 0.00 0.01 0.00 73 1014.7
20260502121818 47 360 0.0 3.0 0.00 0.01 0.00 73 1014.4
20260502121541 46 0 0.0 3.0 0.00 0.01 0.00 74 1014.7
20260502121351 47 22 0.0 3.0 0.00 0.01 0.00 74 1014.4
20260502121022 46 0 0.0 3.0 0.00 0.01 0.00 74 1014.8
20260502120826 47 37 0.0 2.0 0.00 0.01 0.00 75 1014.4
20260502120521 46 0 0.0 2.0 0.00 0.01 0.00 75 1014.7
20260502120344 46 321 0.0 2.0 0.00 0.01 0.00 75 1014.5
20260502115816 46 11 0.0 5.0 0.00 0.01 0.00 75 1014.5
20260502115521 46 0 0.0 5.0 0.00 0.01 0.00 73 1014.6
20260502115329 46 356 2.0 5.0 0.00 0.01 0.00 74 1014.3
20260502115024 46 0 0.0 7.0 0.00 0.01 0.00 73 1014.6
20260502114843 46 342 1.0 6.0 0.00 0.01 0.00 74 1014.2
20260502114559 46 0 0.0 7.0 0.00 0.01 0.00 75 1014.7
20260502114355 46 0.0 0.0 0.00 0.01 0.00 75 1014.4
20260502114023 46 0 0.0 3.0 0.00 0.01 0.00 75 1014.7
20260502113826 46 0.0 0.0 0.00 0.01 0.00 76 1014.5
20260502113524 46 0 0.0 8.0 0.00 0.01 0.00 74 1014.7
20260502113322 46 0.0 0.0 0.00 0.01 0.00 74 1014.4
20260502113045 46 0 0.0 8.0 0.00 0.01 0.00 74 1014.7
20260502112523 46 0 0.0 7.0 0.00 0.01 0.00 74 1014.7
20260502112319 46 0.0 0.0 0.00 0.01 0.00 74 1014.4
20260502112022 46 0 1.0 8.0 0.00 0.01 0.00 74 1014.7
20260502111815 46 0.0 0.0 0.00 0.01 0.00 74 1014.4
20260502111538 46 0 1.0 8.0 0.00 0.01 0.00 74 1014.7
20260502111331 46 0.0 0.0 0.00 0.01 0.00 73 1014.3
20260502111023 46 0 0.0 0.0 0.00 0.01 0.00 72 1014.7
20260502110828 47 0.0 0.0 0.00 0.01 0.00 73 1014.3
20260502110522 46 0.0 0.0 0.00 0.01 0.00 72 1014.6
20260502110313 46 0.0 0.0 0.00 0.01 0.00 72 1014.3
20260502110043 46 0.0 0.0 0.00 0.01 0.00 72 1014.6
20260502105827 47 0.0 0.0 0.00 0.01 0.00 72 1014.2
20260502105522 46 0.0 0.0 0.00 0.01 0.00 71 1014.6
20260502105328 47 0.0 0.0 0.00 0.01 0.00 72 1014.2
20260502105022 46 0.0 0.0 0.00 0.01 0.00 71 1014.5
20260502104823 47 0.0 0.0 0.00 0.01 0.00 72 1013.9
20260502104544 46 0.0 0.0 0.00 0.01 0.00 71 1014.3
20260502104320 47 0.0 0.0 0.00 0.01 0.00 71 1013.9
20260502104022 46 0.0 0.0 0.00 0.01 0.00 70 1014.2
20260502103816 47 0.0 0.0 0.00 0.01 0.00 71 1014.0
20260502103522 46 0.0 0.0 0.00 0.01 0.00 70 1014.3
20260502103331 47 0.0 0.0 0.00 0.01 0.00 70 1014.0
20260502103039 47 0.0 0.0 0.00 0.01 0.00 70 1014.2
20260502102823 47 0.0 0.0 0.00 0.01 0.00 70 1013.9
20260502102522 47 0.0 0.0 0.00 0.01 0.00 69 1014.1
20260502102335 47 0.0 0.0 0.00 0.01 0.00 70 1013.9
20260502102022 47 0.0 0.0 0.00 0.01 0.00 71 1014.2
20260502101826 47 0.0 0.0 0.00 0.01 0.00 71 1013.8
20260502101555 47 0.0 0.0 0.00 0.01 0.00 71 1014.1
20260502101321 48 0.0 0.0 0.00 0.01 0.00 72 1013.8
20260502101022 47 0.0 0.0 0.00 0.01 0.00 72 1014.1
20260502100855 48 0.0 0.0 0.00 0.01 0.00 73 1013.7
20260502100522 47 0.0 0.0 0.00 0.01 0.00 73 1013.8
20260502100316 48 0.0 0.0 0.00 0.01 0.00 73 1013.6
20260502091315 49 0.0 0.0 0.00 0.01 0.00 71 1013.0
20260502091025 48 0.0 0.0 0.00 0.01 0.00 72 1013.3
20260502090830 49 0.0 0.0 0.00 0.01 0.00 73 1013.0
20260502090527 48 0.0 0.0 0.00 0.01 0.00 72 1013.4
20260502090325 49 0.0 0.0 0.00 0.01 0.00 74 1013.1
20260502071332 52 0.0 0.0 0.00 0.01 0.00 75 1012.7
20260502071023 51 0.0 0.0 0.00 0.01 0.00 74 1012.9
20260502070826 52 0.0 0.0 0.00 0.01 0.00 76 1012.7
20260502070523 51 0.0 0.0 0.00 0.01 0.00 75 1012.9
20260502070320 52 0.0 0.0 0.00 0.01 0.00 75 1012.6
20260502070043 51 0.0 0.0 0.00 0.01 0.00 75 1012.8
20260502065834 52 0.0 0.0 0.00 0.01 0.00 75 1012.5
20260502065525 52 0.0 0.0 0.00 0.01 0.00 75 1012.7
20260502065327 52 0.0 0.0 0.00 0.01 0.00 75 1012.5
20260502065025 52 0.0 0.0 0.00 0.01 0.00 74 1012.7
20260502064824 52 0.0 0.0 0.00 0.01 0.00 75 1012.4
20260502064607 52 0.0 0.0 0.00 0.01 0.00 75 1012.7
20260502064325 52 0.0 0.0 0.00 0.01 0.00 75 1012.5
20260502064024 52 0.0 0.0 0.00 0.01 0.00 74 1012.7
20260502063821 52 0.0 0.0 0.00 0.01 0.00 74 1012.4
20260502063524 52 0.0 0.0 0.00 0.01 0.00 74 1012.7
20260502063338 52 0.0 0.0 0.00 0.01 0.00 75 1012.5
20260502063052 52 0.0 0.0 0.00 0.01 0.00 74 1012.7
20260502062851 53 0.0 0.0 0.00 0.01 0.00 74 1012.6
20260502062525 52 0.0 0.0 0.00 0.01 0.00 74 1012.8
20260502062324 53 0.0 0.0 0.00 0.01 0.00 73 1012.7
20260502062024 52 0.0 0.0 0.00 0.01 0.00 74 1013.0
20260502061817 53 0.0 0.0 0.00 0.01 0.00 74 1012.7
20260502061540 52 0.0 0.0 0.00 0.01 0.00 74 1013.2
20260502061024 52 0.0 0.0 0.00 0.01 0.00 74 1013.3
20260502060852 53 0.0 0.0 0.00 0.01 0.00 74 1013.0
20260502060527 52 0.0 0.0 0.00 0.01 0.00 73 1013.3
20260502060326 53 0.0 0.0 0.00 0.01 0.00 73 1013.0
20260502060044 52 0.0 0.0 0.00 0.01 0.00 72 1013.3
20260502055844 53 0.0 0.0 0.00 0.01 0.00 74 1013.0
20260502055525 52 0.0 0.0 0.00 0.01 0.00 72 1013.4
20260502055340 53 0.0 0.0 0.00 0.01 0.00 75 1013.0
20260502055025 52 0.0 0.0 0.00 0.01 0.00 74 1013.3
20260502054815 53 0.0 0.0 0.00 0.01 0.00 75 1012.9
20260502054538 52 0.0 0.0 0.00 0.01 0.00 75 1013.3
20260502054332 52 0.0 0.0 0.00 0.01 0.00 76 1013.0
20260502054024 52 0.0 0.0 0.00 0.01 0.00 78 1013.5
20260502053824 53 0.0 0.0 0.00 0.01 0.00 79 1013.1
20260502053524 52 0.0 0.0 0.00 0.01 0.00 77 1013.3
20260502053317 52 0.0 0.0 0.00 0.01 0.00 78 1012.9
20260502053037 52 0.0 0.0 0.00 0.01 0.00 77 1013.2
20260502052831 52 0.0 0.0 0.00 0.01 0.00 78 1012.8
20260502052525 52 0.0 0.0 0.00 0.01 0.00 81 1013.2
20260502052326 52 0.0 0.0 0.00 0.01 0.00 81 1013.0
20260502052025 52 0.0 0.0 0.00 0.01 0.00 82 1013.3
20260502051843 52 0.0 0.0 0.00 0.01 0.00 83 1013.0
20260502051537 51 0.0 0.0 0.00 0.01 0.00 83 1013.2
20260502051027 52 0.0 0.0 0.00 0.01 0.00 88 1013.2
20260502050841 52 0.0 0.0 0.00 0.01 0.00 89 1012.9
20260502050525 52 0.0 0.0 0.00 0.01 0.00 87 1013.3
20260502050354 52 0.0 0.0 0.00 0.01 0.00 88 1013.0
20260502050045 52 0.0 0.0 0.00 0.01 0.00 88 1013.3
20260502045828 52 0.0 0.0 0.00 0.01 0.00 88 1013.0
20260502045525 52 0.0 0.0 0.00 0.01 0.00 88 1013.3
20260502045322 52 0.0 0.0 0.00 0.01 0.00 89 1012.9
20260502045024 52 0.0 0.0 0.00 0.01 0.00 88 1013.3
20260502044835 52 0.0 0.0 0.00 0.01 0.00 89 1012.9
20260502044539 52 0.0 0.0 0.00 0.01 0.00 88 1013.2
20260502044329 53 0.0 0.0 0.00 0.01 0.00 89 1012.9
20260502044024 52 0.0 0.0 0.00 0.01 0.00 89 1013.2
20260502043843 53 0.0 0.0 0.00 0.01 0.00 89 1012.9
20260502043524 52 0.0 0.0 0.00 0.01 0.00 88 1013.2
20260502043316 53 0.0 0.0 0.00 0.01 0.00 88 1012.8
20260502043103 52 0.0 0.0 0.00 0.01 0.00 88 1013.1
20260502042850 53 0.0 0.0 0.01 0.01 0.00 88 1012.7
20260502042524 52 0.0 0.0 0.01 0.01 0.00 88 1013.1
20260502042323 53 0.0 0.0 0.01 0.01 0.00 88 1012.8
20260502042024 53 0.0 0.0 0.01 0.01 0.00 87 1013.2
20260502041818 53 0.0 0.0 0.01 0.01 0.00 87 1012.7
20260502041543 53 0.0 0.0 0.01 0.01 0.00 87 1013.1
20260502041313 53 0.0 0.0 0.01 0.01 0.00 87 1012.7
20260502041023 53 0.0 0.0 0.01 0.01 0.00 86 1013.1
20260502040830 53 0.0 0.0 0.01 0.01 0.00 86 1012.7
20260502040523 53 0.0 0.0 0.01 0.01 0.00 86 1012.9
20260502040327 54 0.0 0.0 0.01 0.01 0.00 86 1012.7
20260502040038 53 0.0 0.0 0.01 0.01 0.00 85 1012.9
20260502035820 54 0.0 0.0 0.01 0.01 0.01 85 1012.6
20260502035523 54 0.0 0.0 0.01 0.01 0.01 84 1012.8
20260502035317 54 0.0 0.0 0.01 0.01 0.01 84 1012.4
20260502035023 54 0.0 0.0 0.01 0.01 0.01 83 1012.8
20260502034848 55 0.0 0.0 0.01 0.01 0.01 84 1012.4
20260502034537 54 0.0 0.0 0.01 0.01 0.01 83 1012.8
20260502034325 55 0.0 0.0 0.01 0.01 0.01 83 1012.6
20260502034024 55 0.0 0.0 0.01 0.01 0.01 81 1012.8
20260502033821 55 0.0 0.0 0.01 0.01 0.01 80 1012.5
20260502033522 55 0.0 0.0 0.01 0.01 0.01 79 1012.8
20260502033334 56 0.0 0.0 0.01 0.01 0.01 78 1012.4
20260502033038 55 0.0 0.0 0.00 0.00 0.00 76 1012.7
20260502032825 56 0.0 0.0 0.00 0.00 0.00 76 1012.2
20260502032522 56 0.0 0.0 0.00 0.00 0.00 74 1012.5
20260502032319 57 0.0 0.0 0.00 0.00 0.00 74 1012.1
20260502032022 56 0.0 0.0 0.00 0.00 0.00 74 1012.4
20260502031832 57 0.0 0.0 0.00 0.00 0.00 73 1012.2
20260502031533 57 0.0 0.0 0.00 0.00 0.00 71 1012.5
20260502031330 57 0.0 0.0 0.00 0.00 0.00 71 1012.1
20260502031022 57 0.0 0.0 0.00 0.00 0.00 69 1012.4
20260502030824 58 0.0 0.0 0.00 0.00 0.00 67 1012.1
20260502030521 57 0.0 0.0 0.00 0.00 0.00 62 1012.3
20260502030337 58 0.0 0.0 0.00 0.00 0.00 61 1012.0
20260502030046 57 0.0 0.0 0.00 0.00 0.00 60 1012.0
20260502025830 58 0.0 0.0 0.00 0.00 0.00 63 1011.7
20260502025521 57 0.0 0.0 0.00 0.00 0.00 59 1011.9
20260502025326 58 0.0 0.0 0.00 0.00 0.00 59 1011.4
20260502025025 58 0.0 0.0 0.00 0.00 0.00 58 1011.7
20260502024821 58 0.0 0.0 0.00 0.00 0.00 59 1011.3
20260502024540 58 0.0 0.0 0.00 0.00 0.00 58 1011.7
20260502024317 58 0.0 0.0 0.00 0.00 0.00 57 1011.4
20260502024022 58 0.0 0.0 0.00 0.00 0.00 57 1011.8
20260502023855 58 0.0 0.0 0.00 0.00 0.00 58 1011.4
20260502023522 58 0.0 0.0 0.00 0.00 0.00 57 1011.8
20260502023327 59 0.0 0.0 0.00 0.00 0.00 58 1011.4
20260502023040 58 0.0 0.0 0.00 0.00 0.00 57 1011.7
20260502022841 59 0.0 0.0 0.00 0.00 0.00 58 1011.5
20260502022522 58 0.0 0.0 0.00 0.00 0.00 56 1011.8
20260502022314 59 0.0 0.0 0.00 0.00 0.00 56 1011.6
20260502022025 59 0.0 0.0 0.00 0.00 0.00 55 1011.8